| time (UTC) | temp F | wind direction | speed MPH | gust MPH | rain 1hr in | rain 24hr in | rain mn in | humidity % | barometer mb |
| 20260509000513 | 38 | 105 | 2.0 | 3.0 | 0.00 | 0.00 | 0.00 | 74 | 1024.7 |
| 20260508232513 | 43 | 105 | 3.0 | 5.0 | 0.00 | 0.00 | 0.00 | 63 | 1024.9 |
| 20260508231513 | 43 | 113 | 3.0 | 5.0 | 0.00 | 0.00 | 0.00 | 62 | 1024.9 |
| 20260508224514 | 42 | 96 | 3.0 | 5.0 | 0.00 | 0.00 | 0.00 | 72 | 1024.8 |
| 20260508222513 | 42 | 74 | 2.0 | 6.0 | 0.00 | 0.00 | 0.00 | 74 | 1024.7 |
| 20260508215513 | 42 | 49 | 3.0 | 6.0 | 0.00 | 0.00 | 0.00 | 79 | 1024.6 |
| 20260508212513 | 43 | 41 | 3.0 | 6.0 | 0.00 | 0.00 | 0.00 | 77 | 1024.5 |
| 20260508211514 | 43 | 140 | 2.0 | 3.0 | 0.00 | 0.00 | 0.00 | 76 | 1024.4 |
| 20260508210514 | 44 | 145 | 0.0 | 2.0 | 0.00 | 0.00 | 0.00 | 74 | 1024.3 |
| 20260508204513 | 46 | 146 | 1.0 | 2.0 | 0.00 | 0.00 | 0.00 | 70 | 1024.2 |
| 20260508195514 | 51 | 195 | 0.0 | 5.0 | 0.00 | 0.00 | 0.00 | 60 | 1023.8 |
| 20260508193514 | 52 | 164 | 2.0 | 6.0 | 0.00 | 0.00 | 0.00 | 57 | 1023.6 |
| 20260508191513 | 52 | 160 | 1.0 | 6.0 | 0.00 | 0.00 | 0.00 | 60 | 1023.5 |
| 20260508190514 | 53 | 171 | 3.0 | 7.0 | 0.00 | 0.00 | 0.00 | 60 | 1023.4 |
| 20260508185513 | 53 | 183 | 1.0 | 6.0 | 0.00 | 0.00 | 0.00 | 58 | 1023.4 |
| 20260508184513 | 54 | 167 | 3.0 | 6.0 | 0.00 | 0.00 | 0.00 | 57 | 1023.2 |
| 20260508182513 | 55 | 180 | 4.0 | 8.0 | 0.00 | 0.00 | 0.00 | 54 | 1023.0 |
| 20260508175514 | 58 | 187 | 3.0 | 7.0 | 0.00 | 0.00 | 0.00 | 48 | 1022.8 |
| 20260508173513 | 58 | 213 | 7.0 | 12.0 | 0.00 | 0.00 | 0.00 | 43 | 1022.6 |
| 20260508172513 | 58 | 114 | 8.0 | 13.0 | 0.00 | 0.00 | 0.00 | 41 | 1022.7 |
| 20260508171514 | 58 | 120 | 6.0 | 15.0 | 0.00 | 0.00 | 0.00 | 37 | 1022.5 |
| 20260508170513 | 58 | 125 | 9.0 | 16.0 | 0.00 | 0.00 | 0.00 | 38 | 1022.5 |
| 20260508165514 | 59 | 133 | 7.0 | 14.0 | 0.00 | 0.00 | 0.00 | 40 | 1022.5 |
| 20260508164515 | 59 | 115 | 8.0 | 15.0 | 0.00 | 0.00 | 0.00 | 34 | 1022.5 |
| 20260508162514 | 60 | 129 | 6.0 | 14.0 | 0.00 | 0.00 | 0.00 | 32 | 1022.5 |
| 20260508161514 | 60 | 172 | 7.0 | 14.0 | 0.00 | 0.00 | 0.00 | 35 | 1022.4 |
| 20260508160514 | 60 | 141 | 7.0 | 16.0 | 0.00 | 0.00 | 0.00 | 32 | 1022.4 |
| 20260508154514 | 60 | 114 | 11.0 | 14.0 | 0.00 | 0.00 | 0.00 | 31 | 1022.4 |
| 20260508152514 | 61 | 85 | 9.0 | 17.0 | 0.00 | 0.00 | 0.00 | 27 | 1022.4 |
| 20260508151514 | 60 | 87 | 12.0 | 17.0 | 0.00 | 0.00 | 0.00 | 27 | 1022.6 |
| 20260508145513 | 61 | 132 | 8.0 | 16.0 | 0.00 | 0.00 | 0.00 | 28 | 1022.6 |
| 20260508141516 | 62 | 124 | 7.0 | 17.0 | 0.00 | 0.00 | 0.00 | 30 | 1022.7 |
| 20260508135514 | 62 | 125 | 8.0 | 15.0 | 0.00 | 0.00 | 0.00 | 34 | 1022.9 |
| 20260508133514 | 62 | 99 | 7.0 | 16.0 | 0.00 | 0.00 | 0.00 | 34 | 1022.9 |
| 20260508132514 | 62 | 97 | 8.0 | 16.0 | 0.00 | 0.00 | 0.00 | 34 | 1022.9 |
| 20260508130513 | 64 | 128 | 6.0 | 14.0 | 0.00 | 0.00 | 0.00 | 39 | 1023.0 |
| 20260508122513 | 63 | 131 | 4.0 | 10.0 | 0.00 | 0.00 | 0.00 | 39 | 1023.0 |
| 20260508121514 | 62 | 141 | 7.0 | 13.0 | 0.00 | 0.00 | 0.00 | 36 | 1023.1 |
| 20260508113515 | 62 | 173 | 6.0 | 12.0 | 0.00 | 0.00 | 0.00 | 37 | 1023.1 |
| 20260508111513 | 62 | 148 | 6.0 | 13.0 | 0.00 | 0.00 | 0.00 | 38 | 1023.2 |
| 20260508103513 | 62 | 144 | 7.0 | 12.0 | 0.00 | 0.00 | 0.00 | 43 | 1023.1 |
| 20260508100513 | 63 | 140 | 5.0 | 9.0 | 0.00 | 0.00 | 0.00 | 50 | 1023.1 |
| 20260508095513 | 62 | 153 | 5.0 | 10.0 | 0.00 | 0.00 | 0.00 | 52 | 1023.1 |
| 20260508094514 | 62 | 172 | 4.0 | 10.0 | 0.00 | 0.00 | 0.00 | 53 | 1023.1 |
| 20260508093513 | 62 | 151 | 3.0 | 10.0 | 0.00 | 0.00 | 0.00 | 52 | 1023.1 |
| 20260508090513 | 61 | 176 | 4.0 | 9.0 | 0.00 | 0.00 | 0.00 | 56 | 1023.1 |
| 20260508085513 | 61 | 158 | 5.0 | 9.0 | 0.00 | 0.00 | 0.00 | 53 | 1023.1 |
| 20260508084513 | 60 | 141 | 5.0 | 10.0 | 0.00 | 0.00 | 0.00 | 55 | 1023.1 |
| 20260508083514 | 60 | 136 | 3.0 | 10.0 | 0.00 | 0.00 | 0.00 | 56 | 1023.0 |
| 20260508081514 | 58 | 110 | 5.0 | 8.0 | 0.00 | 0.00 | 0.00 | 63 | 1023.0 |
| 20260508063513 | 57 | 77 | 4.0 | 6.0 | 0.00 | 0.00 | 0.00 | 71 | 1022.0 |
| 20260508050513 | 45 | 53 | 0.0 | 0.0 | 0.00 | 0.00 | 0.00 | 94 | 1021.7 |
| 20260508044513 | 42 | 53 | 0.0 | 0.0 | 0.00 | 0.00 | 0.00 | 96 | 1021.6 |
| 20260508041514 | 38 | 52 | 0.0 | 0.0 | 0.00 | 0.00 | 0.00 | 95 | 1021.4 |
| 20260508033513 | 36 | 53 | 0.0 | 0.0 | 0.00 | 0.00 | 0.00 | 94 | 1021.1 |
| 20260508031514 | 36 | 53 | 0.0 | 0.0 | 0.00 | 0.00 | 0.00 | 93 | 1021.0 |
| 20260508030513 | 37 | 53 | 0.0 | 0.0 | 0.00 | 0.00 | 0.00 | 94 | 1021.0 |
| 20260508024513 | 37 | 53 | 0.0 | 0.0 | 0.00 | 0.00 | 0.00 | 94 | 1020.8 |
| 20260508023514 | 38 | 53 | 0.0 | 0.0 | 0.00 | 0.00 | 0.00 | 94 | 1020.8 |
| 20260508021514 | 36 | 53 | 0.0 | 0.0 | 0.00 | 0.00 | 0.00 | 94 | 1020.7 |
| 20260508020514 | 35 | 53 | 0.0 | 0.0 | 0.00 | 0.00 | 0.00 | 93 | 1020.7 |
| 20260508015513 | 36 | 53 | 0.0 | 0.0 | 0.00 | 0.00 | 0.00 | 93 | 1020.7 |
| 20260508014514 | 37 | 53 | 0.0 | 0.0 | 0.00 | 0.00 | 0.00 | 93 | 1020.6 |
| 20260508011513 | 36 | 53 | 0.0 | 0.0 | 0.00 | 0.00 | 0.00 | 92 | 1020.4 |
| 20260508010513 | 36 | 53 | 0.0 | 0.0 | 0.00 | 0.00 | 0.00 | 92 | 1020.5 |
| 20260508005513 | 36 | 53 | 0.0 | 0.0 | 0.00 | 0.00 | 0.00 | 92 | 1020.4 |
| 20260508004514 | 36 | 53 | 0.0 | 0.0 | 0.00 | 0.00 | 0.00 | 92 | 1020.3 |
| 20260508003513 | 37 | 53 | 0.0 | 0.0 | 0.00 | 0.00 | 0.00 | 92 | 1020.3 |